GW5883 Weather Reports


Display with metric or nautical units.
time (UTC)temp
F
wind
direction
speed
MPH
gust
MPH
rain 1hr
in
rain 24hr
in
rain mn
in
humidity
%
barometer
mb
20260504081811 55 199 1.0 1.0 0.00 0.00 0.00 65 1016.3
20260504081308 55 145 0.0 0.0 0.00 0.00 0.00 65 1016.2
20260504080804 54 161 0.0 1.0 0.00 0.00 0.00 65 1016.3
20260504080301 55 158 0.0 0.0 0.00 0.00 0.00 65 1016.3
20260504070228 55 126 0.0 0.0 0.00 0.00 0.00 63 1017.0
20260504060149 54 145 0.0 0.0 0.00 0.00 0.00 68 1017.4
20260504050617 52 148 0.0 0.0 0.00 0.00 0.00 71 1017.8
20260504050114 52 141 0.0 0.0 0.00 0.00 0.00 71 1017.9
20260504045611 52 145 0.0 0.0 0.00 0.00 0.00 70 1018.3
20260504045106 53 141 0.0 0.0 0.00 0.00 0.00 67 1018.2
20260504044604 53 141 0.0 0.0 0.00 0.00 0.00 68 1018.3
20260504044100 54 139 0.0 0.0 0.00 0.00 0.00 66 1018.3
20260504043558 54 140 0.0 0.0 0.00 0.00 0.00 64 1018.2
20260504043055 55 137 0.0 0.0 0.00 0.00 0.00 63 1018.2
20260504042552 55 140 0.0 0.0 0.00 0.00 0.00 62 1018.2
20260504042049 56 136 0.0 0.0 0.00 0.00 0.00 60 1018.4
20260504041545 56 135 0.0 0.0 0.00 0.00 0.00 57 1018.2
20260504041041 57 125 0.0 0.0 0.00 0.00 0.00 56 1018.2
20260504040538 57 136 0.0 0.0 0.00 0.00 0.00 57 1018.0
20260504040035 57 133 0.0 0.0 0.00 0.00 0.00 55 1018.1
20260504035532 58 168 0.0 1.0 0.00 0.00 0.00 55 1017.9
20260504035028 58 135 0.0 0.0 0.00 0.00 0.00 54 1017.6
20260504034526 58 162 1.0 1.0 0.00 0.00 0.00 53 1017.8
20260504034023 58 142 0.0 0.0 0.00 0.00 0.00 53 1017.8
20260504033521 58 158 0.0 0.0 0.00 0.00 0.00 53 1017.5
20260504033018 58 161 0.0 0.0 0.00 0.00 0.00 54 1017.8
20260504032515 58 281 1.0 1.0 0.00 0.00 0.00 54 1017.7
20260504032011 58 147 1.0 1.0 0.00 0.00 0.00 56 1017.9
20260504031508 57 144 0.0 1.0 0.00 0.00 0.00 55 1017.8
20260504031005 56 151 0.0 1.0 0.00 0.00 0.00 60 1017.7
20260504030502 55 146 0.0 0.0 0.00 0.00 0.00 59 1017.9
20260504025957 55 135 0.0 0.0 0.00 0.00 0.00 63 1018.1
20260504025455 54 143 0.0 0.0 0.00 0.00 0.00 65 1018.0
20260504024952 54 139 0.0 0.0 0.00 0.00 0.00 67 1017.9
20260504024449 54 137 0.0 0.0 0.00 0.00 0.00 69 1018.0
20260504023946 54 143 0.0 0.0 0.00 0.00 0.00 71 1018.2
20260504023442 53 142 0.0 0.0 0.00 0.00 0.00 70 1018.3
20260504022938 53 147 0.0 0.0 0.00 0.00 0.00 69 1018.2
20260504022435 54 144 0.0 0.0 0.00 0.00 0.00 68 1018.2
20260504021931 54 156 0.0 0.0 0.00 0.00 0.00 68 1018.2
20260504021429 54 147 0.0 0.0 0.00 0.00 0.00 68 1018.4
20260504020926 54 149 0.0 0.0 0.00 0.00 0.00 67 1018.2
20260504020422 54 144 0.0 0.0 0.00 0.00 0.00 67 1018.3
20260504015919 55 143 0.0 0.0 0.00 0.00 0.00 66 1018.4
20260504015415 55 142 0.0 0.0 0.00 0.00 0.00 66 1018.5
20260504014911 56 142 0.0 0.0 0.00 0.00 0.00 65 1018.5
20260504014407 56 141 0.0 0.0 0.00 0.00 0.00 61 1018.6
20260504013904 56 142 0.0 0.0 0.00 0.00 0.00 58 1018.5
20260504013403 57 136 0.0 0.0 0.00 0.00 0.00 59 1018.2
20260504012859 57 133 0.0 0.0 0.00 0.00 0.00 60 1018.3
20260504012357 57 138 0.0 0.0 0.00 0.00 0.00 60 1018.2
20260504011854 58 144 0.0 0.0 0.00 0.00 0.00 58 1018.1
20260504011350 58 139 0.0 0.0 0.00 0.00 0.00 57 1018.3
20260504010846 59 140 0.0 0.0 0.00 0.00 0.00 55 1017.9
20260504010342 59 142 0.0 0.0 0.00 0.00 0.00 53 1018.0
20260504005839 59 143 0.0 0.0 0.00 0.00 0.00 53 1017.9
20260504005335 60 143 0.0 0.0 0.00 0.00 0.00 52 1017.9
20260504004833 60 140 0.0 0.0 0.00 0.00 0.00 53 1017.7
20260504004331 61 144 0.0 0.0 0.00 0.00 0.00 52 1017.8
20260504003827 62 142 0.0 0.0 0.00 0.00 0.00 48 1018.0
20260504003324 62 141 0.0 0.0 0.00 0.00 0.00 45 1017.9
20260504002820 62 150 0.0 0.0 0.00 0.00 0.00 46 1017.8
20260504002317 63 143 0.0 0.0 0.00 0.00 0.00 45 1018.1
20260504001815 63 162 0.0 0.0 0.00 0.00 0.00 44 1018.0
20260504001312 64 152 0.0 0.0 0.00 0.00 0.00 44 1018.2
20260504000809 64 143 0.0 0.0 0.00 0.00 0.00 42 1018.0
20260504000306 64 151 0.0 0.0 0.00 0.00 0.00 42 1018.0
20260503235804 65 140 1.0 2.0 0.00 0.00 0.00 40 1018.1
20260503235301 65 187 1.0 1.0 0.00 0.00 0.00 40 1018.2
20260503234758 65 131 0.0 0.0 0.00 0.00 0.00 39 1018.4
20260503234256 66 137 0.0 0.0 0.00 0.00 0.00 40 1018.4
20260503233753 66 44 1.0 1.0 0.00 0.00 0.00 41 1018.1
20260503233249 66 153 0.0 0.0 0.00 0.00 0.00 40 1018.5
20260503232746 66 146 0.0 0.0 0.00 0.00 0.00 39 1018.4
20260503232243 66 129 0.0 1.0 0.00 0.00 0.00 38 1018.5
20260503231741 67 137 1.0 1.0 0.00 0.00 0.00 39 1018.7
20260503231238 67 145 0.0 0.0 0.00 0.00 0.00 38 1018.6
20260503230734 67 197 2.0 3.0 0.00 0.00 0.00 37 1018.7
20260503230232 67 117 0.0 0.0 0.00 0.00 0.00 39 1018.8
20260503225729 67 117 0.0 0.0 0.00 0.00 0.00 37 1018.9
20260503225229 67 145 0.0 0.0 0.00 0.00 0.00 36 1019.0
20260503224726 68 206 2.0 3.0 0.00 0.00 0.00 35 1019.0
20260503224224 67 150 0.0 0.0 0.00 0.00 0.00 38 1019.0
20260503223721 68 131 0.0 1.0 0.00 0.00 0.00 37 1019.1
20260503223219 68 145 0.0 0.0 0.00 0.00 0.00 38 1019.1
20260503222715 68 166 0.0 1.0 0.00 0.00 0.00 38 1019.2
20260503222213 68 147 1.0 1.0 0.00 0.00 0.00 36 1019.3
20260503221711 68 202 2.0 3.0 0.00 0.00 0.00 36 1019.6
20260503221209 68 17 2.0 2.0 0.00 0.00 0.00 35 1019.5
20260503220705 68 151 1.0 1.0 0.00 0.00 0.00 35 1019.5
20260503220201 68 104 1.0 1.0 0.00 0.00 0.00 34 1019.4
20260503215658 68 136 0.0 0.0 0.00 0.00 0.00 36 1019.3
20260503215155 68 73 1.0 1.0 0.00 0.00 0.00 36 1019.6
20260503214649 68 138 0.0 1.0 0.00 0.00 0.00 34 1019.6
20260503214144 68 171 1.0 1.0 0.00 0.00 0.00 37 1019.5
20260503213643 68 335 1.0 3.0 0.00 0.00 0.00 35 1019.6
20260503213139 68 142 0.0 0.0 0.00 0.00 0.00 36 1019.7
20260503212637 68 138 1.0 1.0 0.00 0.00 0.00 35 1019.9
20260503212134 68 119 3.0 4.0 0.00 0.00 0.00 33 1020.2
20260503211632 68 137 0.0 0.0 0.00 0.00 0.00 35 1020.3
20260503211127 68 69 0.0 1.0 0.00 0.00 0.00 34 1020.3
20260503210624 68 156 1.0 1.0 0.00 0.00 0.00 36 1020.4
20260503210120 68 218 1.0 1.0 0.00 0.00 0.00 36 1020.5
20260503205616 69 179 1.0 1.0 0.00 0.00 0.00 37 1020.5
20260503205112 69 132 1.0 1.0 0.00 0.00 0.00 35 1020.6
20260503204609 69 149 0.0 1.0 0.00 0.00 0.00 33 1020.5
20260503204107 68 155 2.0 2.0 0.00 0.00 0.00 34 1020.7
20260503203604 68 167 0.0 1.0 0.00 0.00 0.00 36 1021.0
20260503203101 69 157 2.0 3.0 0.00 0.00 0.00 34 1020.8
20260503202559 69 124 3.0 6.0 0.00 0.00 0.00 33 1021.0
20260503202056 68 146 1.0 1.0 0.00 0.00 0.00 34 1021.0
20260503201554 68 162 0.0 0.0 0.00 0.00 0.00 36 1021.2
20260503201051 68 141 0.0 0.0 0.00 0.00 0.00 38 1021.1
20260503200547 68 94 2.0 3.0 0.00 0.00 0.00 34 1021.3
20260503200044 68 139 1.0 2.0 0.00 0.00 0.00 35 1021.5
20260503195541 68 67 0.0 1.0 0.00 0.00 0.00 34 1021.5
20260503195038 68 300 1.0 2.0 0.00 0.00 0.00 35 1021.6
20260503194535 68 104 0.0 1.0 0.00 0.00 0.00 33 1021.7
20260503194035 69 167 0.0 0.0 0.00 0.00 0.00 34 1022.1
20260503193532 68 129 0.0 0.0 0.00 0.00 0.00 39 1022.3
20260503193027 69 139 1.0 1.0 0.00 0.00 0.00 40 1022.3
20260503192523 69 139 0.0 1.0 0.00 0.00 0.00 36 1022.2
20260503192020 68 145 1.0 1.0 0.00 0.00 0.00 39 1022.3
20260503191517 69 168 3.0 6.0 0.00 0.00 0.00 33 1022.6
20260503191013 69 57 1.0 1.0 0.00 0.00 0.00 34 1022.7
20260503190510 69 136 0.0 0.0 0.00 0.00 0.00 31 1022.9
20260503190007 69 79 2.0 3.0 0.00 0.00 0.00 32 1022.8
20260503185504 69 134 0.0 1.0 0.00 0.00 0.00 34 1022.8
20260503185003 68 100 1.0 1.0 0.00 0.00 0.00 35 1023.0
20260503184500 68 188 0.0 0.0 0.00 0.00 0.00 36 1022.9
20260503183956 68 150 0.0 0.0 0.00 0.00 0.00 36 1022.8
20260503183453 68 177 0.0 0.0 0.00 0.00 0.00 37 1023.1
20260503182950 68 138 1.0 2.0 0.00 0.00 0.00 33 1022.9
20260503182449 68 142 2.0 2.0 0.00 0.00 0.00 31 1023.2
20260503181946 69 239 1.0 2.0 0.00 0.00 0.00 33 1023.3
20260503181443 68 156 0.0 1.0 0.00 0.00 0.00 39 1023.4
20260503180939 68 154 0.0 0.0 0.00 0.00 0.00 32 1023.1
20260503180437 67 203 1.0 1.0 0.00 0.00 0.00 39 1023.4
20260503175934 66 151 1.0 1.0 0.00 0.00 0.00 33 1023.3
20260503175432 66 135 0.0 1.0 0.00 0.00 0.00 34 1023.6
20260503174927 67 169 0.0 0.0 0.00 0.00 0.00 34 1023.7
20260503174426 67 151 0.0 1.0 0.00 0.00 0.00 32 1023.7
20260503173926 67 187 0.0 1.0 0.00 0.00 0.00 34 1023.8
20260503173422 67 152 2.0 3.0 0.00 0.00 0.00 35 1023.8
20260503172919 66 223 0.0 0.0 0.00 0.00 0.00 34 1024.1
20260503172417 65 119 0.0 0.0 0.00 0.00 0.00 38 1023.9
20260503171913 65 163 0.0 0.0 0.00 0.00 0.00 35 1024.4
20260503171410 65 166 0.0 1.0 0.00 0.00 0.00 38 1024.3
20260503170907 65 203 1.0 2.0 0.00 0.00 0.00 36 1024.4
20260503170403 65 70 1.0 2.0 0.00 0.00 0.00 33 1024.3
20260503150755 58 42 2.0 3.0 0.00 0.00 0.00 41 1025.1
20260503150251 57 211 1.0 1.0 0.00 0.00 0.00 44 1025.1
20260503140216 53 175 1.0 1.0 0.00 0.00 0.00 65 1025.1
20260503131145 44 144 0.0 0.0 0.00 0.00 0.00 98 1025.0
20260503130643 43 144 0.0 0.0 0.00 0.00 0.00 98 1025.0
20260503130140 42 144 0.0 0.0 0.00 0.00 0.00 98 1025.1
20260503120106 37 144 0.0 0.0 0.00 0.00 0.00 97 1025.0
20260503110533 36 144 0.0 0.0 0.00 0.00 0.00 97 1024.3
20260503090420 38 145 0.0 0.0 0.00 0.00 0.00 97 1023.9